This is the latest recevied weather packets stored in our database for station/object 9M2SES-13. If no packets are shown the sender has not sent any weather packets the latest 10 day(s).
| Time | Temp. | Humidity | Pressure | Rain* | Wind** | Luminosity | Snow |
|---|---|---|---|---|---|---|---|
| 1778141281 | 36.67° C | 11% | - | 0 mm | - | 0 W/m² | - |
| 1778140681 | 35.56° C | 11% | - | 0 mm | - | 0 W/m² | - |
| 1778140080 | 35.56° C | 11% | - | 0 mm | - | 0 W/m² | - |
| 1778139480 | 35° C | 10% | - | 0 mm | - | 0 W/m² | - |
| 1778138879 | 35.56° C | 11% | - | 0 mm | - | 0 W/m² | - |
| 1778137678 | 35° C | 10% | - | 0 mm | - | 0 W/m² | - |
| 1778137077 | 36.67° C | 11% | - | 0 mm | - | 0 W/m² | - |
| 1778136477 | 36.67° C | 11% | - | 0 mm | - | 0 W/m² | - |
| 1778135275 | 35.56° C | 11% | - | 0 mm | - | 0 W/m² | - |
| 1778134073 | 35° C | 10% | - | 0 mm | - | 0 W/m² | - |
| 1778133472 | 35.56° C | 11% | - | 0 mm | - | 0 W/m² | - |
| 1778132270 | 35.56° C | 11% | - | 0 mm | - | 0 W/m² | - |
| 1778131069 | 35° C | 14% | - | 0 mm | - | 0 W/m² | - |
| 1778129267 | 35° C | 10% | - | 0 mm | - | 0 W/m² | - |
| 1778128064 | 33.89° C | 15% | - | 0 mm | - | 0 W/m² | - |
| 1778126862 | 33.89° C | 22% | - | 0 mm | - | 0 W/m² | - |
| 1778125661 | 32.78° C | 33% | - | 0 mm | - | 0 W/m² | - |
| 1778123858 | 31.67° C | 95% | - | 0 mm | - | 0 W/m² | - |
| 1778123257 | 30.56° C | 95% | - | 0 mm | - | 0 W/m² | - |
| 1778122657 | 30.56° C | 95% | - | 0 mm | - | 0 W/m² | - |
| 1778121455 | 30.56° C | 95% | - | 0 mm | - | 0 W/m² | - |
| 1778120854 | 30.56° C | 95% | - | 0 mm | - | 0 W/m² | - |
| 1778120253 | 30° C | 95% | - | 0 mm | - | 0 W/m² | - |
| 1778119052 | 31.67° C | 95% | - | 0 mm | - | 0 W/m² | - |
| 1778117850 | 31.67° C | 95% | - | 0 mm | - | 0 W/m² | - |
* Rain latest hour (hover to see other rain measurements)
** Current wind speed in m/s (hover to see current wind gust speed)